Regional Weather Roundup
Issued by NWS

Home | Current Version | Previous Version | Text Only | Print | Product List | Glossary Off
Versions: 1 2 3 4 5 6 7 8 9 10 11 12 13 14 15 16 17 18 19 20 21 22 23 24 25 26 27 28 29 30 31 32 33 34 35 36 37 38 39 40 41 42 43 44 45 46 47 48 49 50

379
ASUS44 KJAN 271510
RWRMS

MISSISSIPPI HOURLY WEATHER ROUNDUP
NATIONAL WEATHER SERVICE JACKSON MS
1000 AM CDT FRI MAR 27 2015

NOTE: "FAIR: INDICATES FEW OR NO CLOUDS BELOW 12,000 FEET WITH NO
SIGNIFICANT WEATHER AND/OR OBSTRUCTIONS TO VISIBILITY.

MSZ001>002-007>008-010>013-018>021-025>028-034>036-271600-
NORTHWEST MISSISSIPPI

CITY           SKY/WX    TMP DP  RH WIND       PRES   REMARKS
CLARKSDALE     PTSUNNY   46  37  71 NW3       30.11F
CLEVELAND      FAIR      48  38  68 N3        30.10S
GREENWOOD      SUNNY     49  34  56 VRB3      30.10R
GREENVILLE     MOSUNNY   49  35  58 N3        30.11R
OLIVE BRANCH   PTSUNNY   43  41  93 NW7       30.09R
OXFORD         FAIR      45  34  65 N5        30.11R
TUNICA         MOSUNNY   46  37  71 NW5       30.11S
$$

MSZ003>006-009-014>017-022>024-029>033-037>039-271600-
NORTHEAST MISSISSIPPI

CITY           SKY/WX    TMP DP  RH WIND       PRES   REMARKS
COLUMBUS AFB   SUNNY     48  33  55 N14       30.04S
CORINTH        FAIR      45  36  70 VRB6      30.05R
GOLDN TRIANGLE SUNNY     48  36  61 N14       30.05R
STARKVILLE     FAIR      46  34  61 N9G17     30.06R
TUPELO         MOSUNNY   47  34  60 NE13      30.05S
$$

MSZ040-058-271600-
CENTRAL MISSISSIPPI

CITY           SKY/WX    TMP DP  RH WIND       PRES   REMARKS
JACKSON INTL   SUNNY     50  34  54 N13       30.09R
JACKSON HAWKNS SUNNY     50  34  54 VRB7      30.10R
MERIDIAN KEY     N/A    N/A N/A N/A MISG      30.03F
MERIDIAN NAS   SUNNY     50  34  54 NW14      30.03S
RAYMOND        FAIR      50  45  81 N7        30.10R
VICKSBURG      SUNNY     51  37  58 N7        30.13R
$$

MSZ059>079-271600-
SOUTH MISSISSIPPI

CITY           SKY/WX    TMP DP  RH WIND       PRES   REMARKS
BROOKHAVEN     FAIR      52  39  62 N7        30.10S
HATTIESBURG    SUNNY     53  38  56 N10       30.07R
MCCOMB         SUNNY     53  31  42 N10G21    30.08S
NATCHEZ        SUNNY     52  36  54 N9        30.12S
PINE BELT      SUNNY     52  36  54 NW9       30.06S
$$

MSZ080>082-271600-
COASTAL MISSISSIPPI

CITY           SKY/WX    TMP DP  RH WIND       PRES   REMARKS
BAY ST LOUIS   SUNNY     54  39  58 N12G17    30.04F
BILOXI         SUNNY     56  46  68 N10       30.02R
PASCAGOULA     MOSUNNY   55  44  66 N15G23    30.02R
GULFPORT       SUNNY     56  42  59 N12G21    30.03R
$$



USA.gov is the U.S. government's official web portal to all federal, state and local government web resources and services.